Location: Czu?�w
(50.1404°N, 18.9919°E)
Time: 03:20:14
(UTC+00:00)

H-2A R/B - Pass Details

Date: 27 October 2020
Orbit: 733 x 837 km, 98.2° (Epoch: 27 November)

Event Time Altitude Azimuth Distance (km) Brightness Sun altitude
Rises 17:18:51 0° 156° (SSE) 3,352 5.1 -18.2°
Reaches altitude 10° 17:21:11 10° 155° (SSE) 2,432 4.3 -18.5°
Maximum altitude 17:26:34 72° 72° (ENE) 884 2.1 -19.4°
Drops below altitude 10° 17:32:02 10° 349° (N) 2,463 4.8 -20.3°
Sets 17:34:24 0° 348° (NNW) 3,398 5.6 -20.7°
